Overview Statistics Trail Chart Weather Telemetry Raw packets
 

This is the latest recevied weather packets stored in our database for station/object KD7AWQ. If no packets are shown the sender has not sent any weather packets the latest 10 day(s).

<< 111 112 113 114 >>
Time Temp. Humidity Pressure Rain* Wind** Luminosity Snow
1787611420 37.22° C 15% 1186.7 hPa 0 mm - 644 W/m² -
1787611114 38.33° C 15% 1186.6 hPa 0 mm - 494 W/m² -
1787610810 37.78° C 14% 1186.9 hPa 0 mm - 689 W/m² -
1787610506 37.22° C 14% 1187 hPa 0 mm - 711 W/m² -
1787610205 37.22° C 14% 1187.4 hPa 0 mm - 729 W/m² -
1787609905 38.89° C 13% 1187 hPa 0 mm - 747 W/m² -
1787609604 37.78° C 14% 1187.1 hPa 0 mm - 766 W/m² -
1787609299 37.22° C 14% 1187.1 hPa 0 mm - 782 W/m² -
1787608999 37.78° C 14% 1187.2 hPa 0 mm - 805 W/m² -
1787608699 37.78° C 14% 1187.4 hPa 0 mm - 815 W/m² -
1787608398 36.67° C 15% 1187.5 hPa 0 mm - 845 W/m² -
1787608095 36.67° C 15% 1187.8 hPa 0 mm - 858 W/m² -
1787607791 36.67° C 15% 1187.9 hPa 0 mm - 861 W/m² -
1787607488 36.67° C 15% 1187.7 hPa 0 mm - 890 W/m² -
1787607184 36.67° C 15% 1187.5 hPa 0 mm - 912 W/m² -
1787606880 36.67° C 14% 1187.7 hPa 0 mm - 900 W/m² -
1787606578 37.22° C 15% 1187.9 hPa 0 mm - 901 W/m² -
1787606277 37.22° C 15% 1187.9 hPa 0 mm - 918 W/m² -
1787605972 37.22° C 16% 1187.9 hPa 0 mm - 929 W/m² -
1787605671 36.67° C 15% 1188.2 hPa 0 mm - 945 W/m² -
1787605367 36.11° C 16% 1188.1 hPa 0 mm - 953 W/m² -
1787605062 36.67° C 15% 1188.3 hPa 0 mm - 966 W/m² -

* Rain latest hour (hover to see other rain measurements)
** Current wind speed in m/s (hover to see current wind gust speed)